This is the latest recevied weather packets stored in our database for station/object AF5AA. If no packets are shown the sender has not sent any weather packets the latest 10 day(s).
| Time | Temp. | Humidity | Pressure | Rain* | Wind** | Luminosity | Snow |
|---|---|---|---|---|---|---|---|
| 1777243247 | 28.89° C | 72% | 1006.5 hPa | 0 mm | - | 53 W/m² | - |
| 1777242942 | 28.89° C | 72% | 1006.6 hPa | 0 mm | - | 47 W/m² | - |
| 1777242640 | 28.89° C | 73% | 1006.6 hPa | 0 mm | - | 47 W/m² | - |
| 1777242336 | 29.44° C | 75% | 1006.5 hPa | 0 mm | - | 48 W/m² | - |
| 1777242033 | 29.44° C | 70% | 1006.6 hPa | 0 mm | - | 54 W/m² | - |
| 1777241731 | 29.44° C | 71% | 1006.7 hPa | 0 mm | - | 74 W/m² | - |
| 1777241427 | 29.44° C | 69% | 1006.6 hPa | 0 mm | - | 83 W/m² | - |
| 1777241125 | 29.44° C | 72% | 1006.8 hPa | 0 mm | - | 82 W/m² | - |
| 1777240823 | 29.44° C | 71% | 1006.5 hPa | 0 mm | - | 131 W/m² | - |
| 1777240521 | 29.44° C | 71% | 1006.6 hPa | 0 mm | - | 103 W/m² | - |
| 1777240217 | 29.44° C | 71% | 1006.7 hPa | 0 mm | - | 103 W/m² | - |
| 1777239915 | 29.44° C | 72% | 1006.4 hPa | 0 mm | - | 127 W/m² | - |
| 1777239613 | 29.44° C | 73% | 1006.7 hPa | 0 mm | - | 109 W/m² | - |
| 1777239309 | 28.89° C | 73% | 1006.7 hPa | 0 mm | - | 116 W/m² | - |
| 1777239006 | 28.89° C | 75% | 1006.7 hPa | 0 mm | - | 135 W/m² | - |
| 1777238703 | 29.44° C | 73% | 1006.7 hPa | 0 mm | - | 109 W/m² | - |
| 1777238399 | 29.44° C | 74% | 1007 hPa | 0 mm | - | 118 W/m² | - |
| 1777238096 | 28.89° C | 72% | 1006.6 hPa | 0 mm | - | 128 W/m² | - |
| 1777237793 | 28.89° C | 72% | 1006.6 hPa | 0 mm | - | 93 W/m² | - |
| 1777237490 | 28.89° C | 73% | 1006.6 hPa | 0 mm | - | 91 W/m² | - |
| 1777237187 | 28.89° C | 71% | 1006.7 hPa | 0 mm | - | 89 W/m² | - |
| 1777236884 | 29.44° C | 70% | 1006.7 hPa | 0 mm | - | 135 W/m² | - |
| 1777236580 | 29.44° C | 71% | 1006.9 hPa | 0 mm | - | 179 W/m² | - |
| 1777236276 | 29.44° C | 70% | 1007 hPa | 0 mm | - | 123 W/m² | - |
| 1777235972 | 29.44° C | 73% | 1007 hPa | 0 mm | - | 151 W/m² | - |
* Rain latest hour (hover to see other rain measurements)
** Current wind speed in m/s (hover to see current wind gust speed)